{"data":{"norad_id":50502,"intl_designator":"2021-132AK","name":"ONEWEB-0432","alt_names":[],"object_type":"PAYLOAD","status":"ACTIVE","operator":null,"country":"UK","launch_date":"2021-12-27","launch_site_code":"TYMSC","launch_vehicle":null,"mission":null,"orbit_class":"UNKNOWN","rcs_meters":null,"size_class":null,"mass_kg":null,"dimensions":null,"purposes":["comms"],"wikipedia_slug":null,"has_3d_model":false,"image_url":null,"decayed_at":null,"tle_current":{"epoch":"2026-05-25T01:35:26.560032Z","epoch_age_seconds":63318,"freshness":"FRESH","line1":"1 50502U 21132AK  26145.06627963 -.00000009  00000+0 -56287-4 0  9990","line2":"2 50502  87.9169 340.0317 0001606 107.7591 252.3717 13.18712754218530","mean_motion":13.18712754,"eccentricity":0.0001606,"inclination_deg":87.9169,"raan_deg":340.0317,"arg_perigee_deg":107.7591,"mean_anomaly_deg":252.3717,"bstar":-5.6287e-5,"rev_number":21853,"period_min":109.19739690331,"perigee_km":1188.4253834796,"apogee_km":1190.8561536988,"semimajor_km":7567.7777685892,"source":"CELESTRAK","updated_at":"2026-05-25T13:38:22.574554Z"}}}